Stations météo

réclame
Mon MeteoGroup
De Bilt, Pays-Bas (6260): Température de l'air & dewpoint: 17.04.2018 03:00:00 - 23.04.2018 03:00:00 (CEST)De Bilt, Pays-Bas (6260): Température de l'air 5cm & Température de l'air -5cm: 17.04.2018 03:00:00 - 23.04.2018 03:00:00 (CEST)De Bilt, Pays-Bas (6260): Température de l'air -20cm & Température de l'air -100cm: 17.04.2018 03:00:00 - 23.04.2018 03:00:00 (CEST)De Bilt, Pays-Bas (6260): Vitesse du vent & gusts: 17.04.2018 03:00:00 - 23.04.2018 03:00:00 (CEST)De Bilt, Pays-Bas (6260): Direction du vent: 17.04.2018 03:00:00 - 23.04.2018 03:00:00 (CEST)De Bilt, Pays-Bas (6260): reduced air pressure: 17.04.2018 03:00:00 - 23.04.2018 03:00:00 (CEST)De Bilt, Pays-Bas (6260): visibility: 17.04.2018 03:00:00 - 23.04.2018 03:00:00 (CEST)De Bilt, Pays-Bas (6260): Quantités de précipitations: 17.04.2018 03:00:00 - 23.04.2018 03:00:00 (CEST)
Date & Time tt [°C] td [°C] tt 5cm [°C] tt -5cm [°C] tt -20cm [°C] tt -100cm [°C] ff [km/h] ff [knt] fx [km/h] fx [knt] dd ppp [hPa] vv [km] rr [mm]
23.04.2018 03:00:00 13,8 8,1 13,0 13,9 13,4 10,0 14 8 25 14 WSW 1011,0 29 0,0
23.04.2018 02:00:00 15,0 8,8 13,9 14,2 13,4 10,0 14 8 29 16 WSW 1010,8 33 0,0
23.04.2018 01:00:00 16,3 8,9 15,5 14,4 13,5 10,0 14 8 29 16 WSW 1010,5 31 0,0
23.04.2018 00:00:00 16,9 9,3 16,0 14,7 13,5 10,0 11 6 29 16 SW 1010,2 28 0,0
22.04.2018 23:00:00 17,3 9,2 16,0 15,0 13,6 10,0 14 8 32 18 SW 1010,1 24 0,0
22.04.2018 22:00:00 17,9 9,0 16,1 15,5 13,5 9,9 14 8 25 14 SW 1010,0 25 0,0
22.04.2018 21:00:00 19,5 8,0 17,6 16,0 13,5 9,9 11 6 18 10 W 1009,5 30 0,0
22.04.2018 20:00:00 21,1 9,1 19,9 16,5 13,4 9,9 14 8 32 18 WSW 1009,0 34 0,0
22.04.2018 19:00:00 22,3 12,8 21,9 16,9 13,2 9,9 14 8 29 16 W 1008,7 21 0,0
22.04.2018 18:00:00 22,9 12,6 23,2 17,1 13,1 9,9 22 12 40 21 WNW 1008,6 13 0,0
22.04.2018 17:00:00 25,6 12,8 25,7 17,1 12,9 9,9 14 8 29 16 WSW 1008,1 25 0,0
22.04.2018 16:00:00 26,0 13,0 26,9 16,9 12,7 9,9 11 6 22 12 S 1008,6 27 0,0
22.04.2018 15:00:00 25,0 11,9 26,2 16,5 12,5 9,9 18 10 29 16 S 1009,5 26 0,0
22.04.2018 14:00:00 24,4 13,2 26,0 15,6 12,4 9,9 14 8 22 12 S 1009,6 16 0,0
22.04.2018 13:00:00 22,6 13,9 24,5 14,4 12,3 9,9 11 6 18 10 S 1010,9 13 0,0
22.04.2018 12:00:00 18,8 12,8 19,0 13,9 12,3 9,8 14 8 22 12 S 1012,1 14 0,0
22.04.2018 11:00:00 18,0 11,6 19,7 13,1 12,3 9,8 11 6 18 10 SSE 1011,8 15 0,0
22.04.2018 10:00:00 17,4 11,2 18,7 12,5 12,3 9,8 11 6 18 10 SE 1012,3 22 0,0
22.04.2018 09:00:00 14,9 9,1 14,9 12,0 12,4 9,8 4 2 7 4 ESE 1012,9 25 0,0
22.04.2018 08:00:00 12,8 8,0 10,5 11,8 12,5 9,8 7 4 11 6 ESE 1013,5 29 0,0
22.04.2018 07:00:00 10,6 7,1 7,0 11,9 12,6 9,8 7 4 14 8 E 1013,7 34 0,0
22.04.2018 06:00:00 10,2 6,8 5,6 12,1 12,7 9,8 7 4 14 8 E 1014,0 33 0,0
22.04.2018 05:00:00 10,3 6,8 5,6 12,4 12,8 9,8 7 4 11 6 E 1015,2 39 0,0
22.04.2018 04:00:00 11,0 7,0 6,0 12,6 13,0 9,8 7 4 11 6 E 1016,0 37 0,0
22.04.2018 03:00:00 11,7 7,0 7,7 12,9 13,1 9,8 7 4 14 8 E 1016,3 45 0,0
22.04.2018 02:00:00 12,2 7,1 9,8 13,2 13,2 9,8 11 6 18 10 E 1017,0 41 0,0
22.04.2018 01:00:00 12,6 7,1 7,6 13,5 13,2 9,8 11 6 18 10 E 1017,8 45 0,0
22.04.2018 00:00:00 12,3 8,2 7,4 13,9 13,3 9,7 7 4 11 6 NE 1018,3 46 0,0
21.04.2018 23:00:00 12,8 9,7 8,3 14,4 13,3 9,7 4 2 7 4 NE 1018,6 49 0,0
21.04.2018 22:00:00 15,0 9,0 11,4 14,9 13,3 9,7 7 4 14 8 ENE 1018,8 49 0,0
21.04.2018 21:00:00 17,9 8,0 13,9 15,3 13,3 9,7 7 4 14 8 NE 1018,9 50 0,0
21.04.2018 20:00:00 19,7 8,3 17,8 15,7 13,2 9,7 11 6 18 10 NE 1018,9 46 0,0
21.04.2018 19:00:00 21,1 8,1 20,5 16,0 13,1 9,7 11 6 18 10 NE 1019,2 37 0,0
21.04.2018 18:00:00 21,4 8,9 21,6 16,2 12,9 9,7 14 8 22 12 NE 1019,8 41 0,0
21.04.2018 17:00:00 21,7 9,5 23,2 16,2 12,8 9,7 11 6 22 12 ENE 1020,3 37 0,0
21.04.2018 16:00:00 21,7 8,2 23,2 16,1 12,6 9,7 11 6 18 10 NE 1020,9 43 0,0
21.04.2018 15:00:00 21,8 7,1 23,6 15,7 12,5 9,7 11 6 18 10 NNE 1021,6 34 0,0
21.04.2018 14:00:00 20,4 8,1 22,7 15,0 12,4 9,6 11 6 22 12 NNE 1022,1 37 0,0
21.04.2018 13:00:00 19,4 9,5 21,6 14,2 12,3 9,6 11 6 18 10 NE 1022,6 30 0,0
21.04.2018 12:00:00 18,1 9,9 20,4 13,5 12,3 9,6 11 6 18 10 NNE 1023,3 31 0,0
21.04.2018 11:00:00 16,9 9,8 18,2 12,9 12,3 9,6 11 6 22 12 ENE 1023,4 27 0,0
21.04.2018 10:00:00 15,1 10,3 16,8 12,5 12,4 9,6 11 6 18 10 ENE 1023,4 18 0,0
21.04.2018 09:00:00 13,0 10,1 13,6 12,1 12,5 9,6 7 4 14 8 NE 1023,4 11 0,0
21.04.2018 08:00:00 10,8 10,4 9,8 12,0 12,6 9,6 4 2 7 4 N 1023,2 1,8 0,0
21.04.2018 07:00:00 8,3 8,3 5,5 12,2 12,7 9,6 4 2 7 4 N 1022,8 0,6 0,0
21.04.2018 06:00:00 8,7 8,6 6,3 12,5 12,8 9,6 4 2 7 4 N 1022,1 0,8 0,0
21.04.2018 05:00:00 9,7 9,3 7,6 12,8 12,9 9,6 4 2 7 4 N 1022,4 1,2 0,0
21.04.2018 04:00:00 10,6 9,8 9,3 13,1 13,0 9,6 4 2 7 4 NNW 1022,3 2,0 0,0
21.04.2018 03:00:00 11,1 9,5 9,8 13,4 13,1 9,5 7 4 11 6 NNW 1022,3 2,6 0,0
21.04.2018 02:00:00 11,5 9,3 10,3 13,7 13,2 9,5 7 4 11 6 NNW 1022,3 2,7 0,0
21.04.2018 01:00:00 12,2 9,2 11,2 14,1 13,2 9,5 7 4 14 8 NNW 1022,4 3,4 0,0
21.04.2018 00:00:00 12,6 10,1 11,6 14,4 13,3 9,5 11 6 14 8 NW 1022,3 5 0,0
20.04.2018 23:00:00 14,0 10,6 12,7 14,8 13,3 9,5 7 4 14 8 NW 1022,4 7 0,0
20.04.2018 22:00:00 16,5 11,2 14,4 15,3 13,3 9,5 7 4 14 8 WNW 1022,1 10 0,0
20.04.2018 21:00:00 17,9 11,9 15,7 15,9 13,3 9,5 7 4 11 6 WNW 1021,9 13 0,0
20.04.2018 20:00:00 21,3 11,5 20,1 16,3 13,2 9,5 11 6 14 8 NW 1021,4 24 0,0
20.04.2018 19:00:00 23,6 9,8 23,1 16,7 13,0 9,5 11 6 18 10 NNW 1021,4 34 0,0
20.04.2018 18:00:00 24,4 8,0 24,8 17,1 12,8 9,5 11 6 22 12 NW 1021,6 35 0,0
20.04.2018 17:00:00 25,1 9,4 25,7 17,2 12,6 9,5 14 8 22 12 NW 1021,7 24 0,0
20.04.2018 16:00:00 25,8 12,6 26,8 16,9 12,4 9,4 14 8 25 14 WNW 1021,8 22 0,0
20.04.2018 15:00:00 26,1 14,3 27,6 16,5 12,2 9,4 11 6 22 12 W 1021,9 21 0,0
20.04.2018 14:00:00 25,9 12,9 26,8 15,8 12,0 9,4 14 8 25 14 SW 1022,2 21 0,0
20.04.2018 13:00:00 25,5 11,7 26,5 14,9 11,9 9,4 14 8 18 10 SW 1022,6 30 0,0
20.04.2018 12:00:00 25,0 11,7 25,9 14,0 11,8 9,4 11 6 14 8 SW 1022,5 24 0,0
20.04.2018 11:00:00 23,7 12,5 24,5 13,1 11,8 9,4 7 4 11 6 WSW 1022,6 14 0,0
20.04.2018 10:00:00 21,4 13,3 21,7 12,4 11,9 9,4 7 4 11 6 SSW 1022,4 12 0,0
20.04.2018 09:00:00 17,1 12,1 17,2 11,9 12,0 9,4 4 2 7 4 SSE 1022,6 9 0,0
20.04.2018 08:00:00 14,5 11,7 13,0 11,7 12,1 9,4 4 2 7 4 SSE 1022,6 9 0,0
20.04.2018 07:00:00 10,4 9,7 6,3 11,8 12,2 9,4 7 4 7 4 SSE 1022,3 7 0,0
20.04.2018 06:00:00 10,5 9,6 6,5 12,0 12,3 9,4 7 4 11 6 SSE 1022,3 6 0,0
20.04.2018 05:00:00 11,2 9,7 6,6 12,3 12,4 9,3 7 4 11 6 SSE 1022,6 12 0,0
20.04.2018 04:00:00 10,4 9,6 7,1 12,5 12,5 9,3 4 2 7 4 SSE 1022,7 12 0,0
20.04.2018 03:00:00 11,4 10,3 7,3 12,8 12,6 9,3 4 2 11 6 S 1022,9 13 0,0
20.04.2018 02:00:00 11,4 10,5 7,9 13,1 12,6 9,3 4 2 4 2 NNW 1023,1 21 0,0
20.04.2018 01:00:00 12,4 10,7 8,4 13,5 12,7 9,3 4 2 4 2 NNW 1023,2 12 0,0
20.04.2018 00:00:00 13,4 10,8 9,2 13,9 12,8 9,3 0 0 4 2 N 1023,4 27 0,0
19.04.2018 23:00:00 15,0 10,7 10,4 14,3 12,8 9,3 4 2 7 4 WNW 1023,7 49 0,0
19.04.2018 22:00:00 17,2 11,7 11,1 14,8 12,8 9,3 7 4 7 4 SSE 1023,6 48 0,0
19.04.2018 21:00:00 21,2 7,9 13,9 15,4 12,7 9,3 7 4 14 8 SE 1023,3 50 0,0
19.04.2018 20:00:00 24,8 7,7 21,1 15,8 12,6 9,3 11 6 18 10 SE 1023,2 44 0,0
19.04.2018 19:00:00 26,4 7,4 24,9 16,2 12,5 9,3 14 8 25 14 SE 1023,6 42 0,0
19.04.2018 18:00:00 27,0 8,5 26,0 16,4 12,3 9,3 18 10 36 19 SE 1023,7 38 0,0
19.04.2018 17:00:00 27,1 8,7 26,8 16,5 12,1 9,3 18 10 36 19 SE 1024,3 32 0,0
19.04.2018 16:00:00 26,8 7,9 26,7 16,3 11,9 9,3 22 12 32 18 SE 1024,8 39 0,0
19.04.2018 15:00:00 26,1 11,3 26,6 15,9 11,7 9,2 22 12 29 16 SE 1025,4 28 0,0
19.04.2018 14:00:00 25,1 11,6 26,2 15,2 11,5 9,2 18 10 25 14 SE 1025,9 22 0,0
19.04.2018 13:00:00 24,3 10,0 25,6 14,3 11,4 9,2 18 10 29 16 SE 1026,4 41 0,0
19.04.2018 12:00:00 23,7 10,1 24,5 13,3 11,4 9,2 14 8 29 16 SSE 1026,7 34 0,0
19.04.2018 11:00:00 22,9 10,4 23,7 12,4 11,4 9,2 14 8 22 12 SE 1026,9 36 0,0
19.04.2018 10:00:00 21,1 10,3 21,4 11,8 11,4 9,2 14 8 22 12 SE 1027,0 23 0,0
19.04.2018 09:00:00 18,8 10,4 18,2 11,3 11,5 9,2 7 4 18 10 SE 1027,4 25 0,0
19.04.2018 08:00:00 16,3 8,9 13,7 11,1 11,6 9,2 11 6 - - SE 1027,3 19 0,0
19.04.2018 07:00:00 13,6 8,4 7,4 11,3 11,7 9,2 11 6 14 8 SE 1027,1 14 0,0
19.04.2018 06:00:00 9,5 8,9 5,3 11,5 11,8 9,2 11 6 11 6 SE 1027,2 8 0,0
19.04.2018 05:00:00 11,5 8,8 6,1 11,8 11,9 9,2 7 4 11 6 SE 1027,3 12 0,0
19.04.2018 04:00:00 12,4 8,7 7,0 12,0 12,0 9,2 7 4 11 6 ESE 1027,5 12 0,0
19.04.2018 03:00:00 13,7 8,6 8,0 12,3 12,0 9,2 11 6 18 10 E 1027,7 14 0,0
19.04.2018 02:00:00 13,8 8,5 8,2 12,6 12,1 9,2 11 6 14 8 E 1028,2 15 0,0
19.04.2018 01:00:00 14,9 8,5 8,9 13,0 12,2 9,2 11 6 14 8 E 1028,8 16 0,0
19.04.2018 00:00:00 15,8 8,4 8,6 13,4 12,2 9,2 11 6 14 8 E 1028,9 24 0,0
18.04.2018 23:00:00 16,4 8,4 9,1 13,8 12,2 9,2 11 6 18 10 E 1028,9 26 0,0
18.04.2018 22:00:00 14,4 11,0 9,9 14,3 12,2 9,1 7 4 11 6 ENE 1028,9 30 0,0
18.04.2018 21:00:00 16,8 11,2 12,5 14,9 12,1 9,1 7 4 7 4 ENE 1028,8 32 0,0
18.04.2018 20:00:00 21,0 9,4 18,4 15,4 12,0 9,1 7 4 18 10 E 1028,7 32 0,0
18.04.2018 19:00:00 23,3 8,4 23,0 15,7 11,8 9,1 7 4 14 8 SE 1028,8 32 0,0
18.04.2018 18:00:00 23,1 8,5 23,3 15,9 11,6 9,1 14 8 22 12 SSE 1029,2 21 0,0
18.04.2018 17:00:00 23,1 9,6 24,4 15,9 11,4 9,1 11 6 18 10 SE 1029,7 24 0,0
18.04.2018 16:00:00 22,9 10,7 24,4 15,6 11,2 9,1 11 6 22 12 SE 1030,0 23 0,0
18.04.2018 15:00:00 22,8 8,9 24,4 14,9 10,9 9,1 11 6 22 12 SSE 1030,5 31 0,0
18.04.2018 14:00:00 22,4 9,3 24,2 14,1 10,8 9,1 11 6 22 12 SSE 1031,0 29 0,0
18.04.2018 13:00:00 21,5 9,1 23,4 13,1 10,6 9,1 11 6 18 10 S 1031,1 28 0,0
18.04.2018 12:00:00 20,3 11,5 22,0 12,1 10,6 9,1 11 6 18 10 SSE 1031,3 20 0,0
18.04.2018 11:00:00 19,0 10,8 20,9 11,2 10,6 9,1 7 4 14 8 S 1031,4 20 0,0
18.04.2018 10:00:00 16,7 10,3 17,5 10,5 10,6 9,1 7 4 11 6 S 1031,1 24 0,0
18.04.2018 09:00:00 14,2 9,5 14,0 10,0 10,7 9,1 7 4 11 6 SSE 1030,6 20 0,0
18.04.2018 08:00:00 11,5 8,5 10,1 9,8 10,8 9,1 7 4 11 6 SSE 1030,4 19 0,0
18.04.2018 07:00:00 8,4 7,5 3,6 10,0 10,9 9,1 4 2 7 4 SSE 1029,8 15 0,0
18.04.2018 06:00:00 7,7 7,1 3,4 10,2 11,0 9,1 7 4 11 6 SSE 1029,2 18 0,0
18.04.2018 05:00:00 7,1 6,8 3,2 10,4 11,1 9,1 7 4 7 4 SE 1028,9 11 0,0
18.04.2018 04:00:00 7,3 7,2 3,5 10,7 11,2 9,1 7 4 7 4 SSE 1028,4 10 0,0
18.04.2018 03:00:00 7,5 7,2 4,2 11,0 11,3 9,1 7 4 7 4 SE 1028,1 14 0,0
18.04.2018 02:00:00 8,3 8,0 4,4 11,3 11,4 9,0 4 2 7 4 SSE 1027,9 11 0,0
18.04.2018 01:00:00 8,6 8,3 5,1 11,6 11,4 9,0 4 2 7 4 SSE 1027,6 15 0,0
18.04.2018 00:00:00 9,1 8,5 5,6 12,0 11,5 9,0 4 2 7 4 SSE 1027,2 18 0,0
17.04.2018 23:00:00 10,7 8,8 6,0 12,4 11,5 9,0 4 2 7 4 SSE 1026,9 25 0,0
17.04.2018 22:00:00 11,5 9,3 7,4 12,9 11,5 9,0 4 2 4 2 SSE 1026,5 25 0,0
17.04.2018 21:00:00 14,7 9,1 11,4 13,4 11,4 9,0 4 2 11 6 SSW 1025,8 31 0,0
17.04.2018 20:00:00 18,6 8,5 17,3 13,7 11,3 9,0 7 4 14 8 WSW 1025,1 26 0,0
17.04.2018 19:00:00 19,5 7,4 19,2 13,9 11,2 9,0 14 8 22 12 SSW 1024,7 33 0,0
17.04.2018 18:00:00 20,1 7,2 20,8 14,0 11,0 9,0 11 6 25 14 SW 1024,9 22 0,0
17.04.2018 17:00:00 20,0 7,3 20,6 13,9 10,9 9,0 18 10 32 18 SSW 1024,6 30 0,0
17.04.2018 16:00:00 19,6 7,4 21,0 13,6 10,7 9,0 14 8 29 16 SSW 1024,4 25 0,0
17.04.2018 15:00:00 18,5 8,0 19,2 13,3 10,5 9,0 14 8 29 16 S 1024,3 30 0,0
17.04.2018 14:00:00 18,5 6,9 20,2 12,6 10,4 9,0 18 10 32 18 SSW 1024,4 29 0,0
17.04.2018 13:00:00 17,7 6,4 19,4 11,8 10,3 9,0 22 12 36 19 S 1024,6 23 0,0
17.04.2018 12:00:00 17,0 7,0 18,1 11,1 10,3 9,0 18 10 32 18 SSW 1024,6 28 0,0
17.04.2018 11:00:00 15,9 7,9 16,9 10,3 10,3 9,0 18 10 29 16 S 1024,4 28 0,0
17.04.2018 10:00:00 13,2 8,7 13,9 9,7 10,4 8,9 11 6 22 12 SSE 1024,2 17 0,0
17.04.2018 09:00:00 10,6 7,2 10,6 9,3 10,5 8,9 11 6 22 12 SSE 1024,2 19 0,0
17.04.2018 08:00:00 8,3 5,9 6,5 9,3 10,6 8,9 7 4 14 8 SE 1023,7 19 0,0
17.04.2018 07:00:00 5,1 4,8 1,2 9,5 10,8 8,9 7 4 11 6 SSE 1023,5 14 0,0
17.04.2018 06:00:00 5,3 4,3 1,6 9,7 10,9 8,9 7 4 11 6 SSE 1022,4 17 0,0
17.04.2018 05:00:00 5,3 4,4 1,4 10,0 11,0 8,9 11 6 14 8 SSE 1022,2 18 0,0
17.04.2018 04:00:00 5,5 4,6 1,0 10,3 11,2 8,9 7 4 11 6 SSE 1022,2 18 0,0
17.04.2018 03:00:00 5,7 4,7 1,8 10,6 11,3 8,9 7 4 11 6 SSE 1021,9 20 0,0

tt = Température de l'air
td = dewpoint
tt 5cm = Température de l'air 5cm
tt -5cm = Température de l'air -5cm
tt -20cm = Température de l'air -20cm
tt -100cm = Température de l'air -100cm
ff = Vitesse du vent
fx = gusts
dd = Direction du vent
ppp = reduced air pressure
vv = visibility
rr = Quantités de précipitations

stations d'obs. à proximité